Tracking 19817 objects as of 18-Aug-2019
HD Live streaming from Space Station
objects crossing your sky now

CZ-3B R/B

Track CZ-3B R/B now!
10-day predictions


NORAD ID: 41195
Int'l Code: 2015-083B
Perigee: 160.4 km
Apogee: 11,532.6 km
Inclination: 22.7 °
Period: 224.0 minutes
Semi major axis: 12217 km
RCS: Unknown
Launch date: December 28, 2015
Source: People's Republic of China (PRC)
Launch site: Xichang Space Center, China (XSC)

Note: This is a ROCKET BODY
aabbcc
Your satellite tracking list
Your tracking list is empty




NASA's NSSDC Master Catalog

Two Line Element Set (TLE):
1 41195U 15083B   19229.21550827  .00235697 -19513-6  65002-3 0  9994
2 41195  22.6502 235.6784 4654062  98.2944 315.2068  6.42879600 56735
Source of the keplerian elements: AFSPC